sat.trackr.live / text

‹ back to catalog

JCSAT-12 (JCSAT-RA)

NORAD 35755 · 2009-044A

PAYLOAD ACTIVE UNKNOWN

§ Identity

Operator
Country
JPN
Launch date
2009-08-21
Launch site
FRGUI
Launch vehicle
Mass (kg)
RCS (m²)
50.12

Purposes: comms

External: N2YO · Heavens-Above · Gunter

§ Orbital elements

Epoch: 2026-09-20T00:26:30.838272Z

Period
1,436.12 min
Inclination
0.0345°
Eccentricity
0.0001969
Mean motion
1.00270482 rev/d
Perigee alt
35,778.7 km
Apogee alt
35,795.3 km
Semi-major
42,165.1 km
B*
0.0000e+0
RAAN
273.3567°
Arg perigee
310.6841°
Mean anomaly
273.5759°
Rev number
6,256

§ Raw data

JCSAT-12 (JCSAT-RA)1 35755U 09044A   26263.01841248 -.00000332  00000+0  00000+0 0  99962 35755   0.0345 273.3567 0001969 310.6841 273.5759  1.00270482 62561

JSON: /api/v1/satellites/35755 · /tle

For live sub-satellite position, see the globe view (requires WebGL).

§ Visibility from observer

Set your observer location to see the next 7 days of passes ≥ 10°. The values pass through the URL so the page stays shareable.

No JS? Fill the form by hand. The geolocation button needs JavaScript.